Voltar ao catálogo

FENGYUN 1C DEB

AtivoSSO
NORAD 31724·DEBRIS·🇨🇳 China

Lançado May 10, 1999 de Taiyuan Satellite Launch Center

Loading…

Próximas Passagens (próximas 24 horas)

TLE

AtualizadoSource: Space-Track

Época: Sep 12, 2026, 22:40 UTC

1 31724U 99025CDX 26255.94489323  .00009729  00000-0  19672-2 0  9998
2 31724  97.8554 249.6694 0140482 109.1455 252.5011 14.55418285684738

Acompanhe FENGYUN 1C DEB em tempo real com AllMySat

Download on the App Store